[[{"header":{"parameterUnit":"m.s-1","parameterCategory":1,"la1":30.2991,"la2":30.254,"lo1":-89.0895,"lo2":-89.0444,"dy":0.0017,"dx":0.0017,"nx":28,"ny":28,"refTime":"2024-07-18T09:00:00:Z","depth":0,"parameterNumber":2,"parameterNumberName":"U-component_of_WINDS"},"data":[0,0,0,0,0,0,0,0,0,0,0,0,0,0,0,0,0,0,0,0,0,0,0,0,0,0,0,0,0,0,0,0,0,0,0,0,0,0,0,0,0,0,0,0,0,0,0,0,0,0,0,0,0,0,0,0,0,0,-0.8142,-0.8143,0,-0.8228,-0.8229,-0.823,-0.8273,-0.8273,-0.8273,-0.8273,-0.8364,-0.8366,-0.8369,0,0,0,0,0,0,0,0,0,0,0,0,0,-0.8018,-0.802,-0.8142,-0.8143,-0.8144,-0.8228,-0.8229,-0.823,-0.8273,-0.8273,-0.8273,-0.8273,-0.8363,-0.8366,-0.8369,0,0,0,0,0,0,0,0,0,0,0,0,0,-0.8084,-0.802,-0.8142,-0.8175,-0.8179,-0.8227,-0.8229,-0.823,-0.8273,-0.8273,-0.8273,-0.8273,-0.8362,-0.8366,-0.8369,-0.8391,0,0,-0.838,-0.8382,0,0,0,0,0,0,0,0,-0.8081,-0.8089,-0.8169,-0.8173,-0.8178,-0.824,-0.8218,-0.8284,-0.8273,-0.8238,-0.8273,-0.8273,-0.8323,-0.833,-0.8346,-0.8395,-0.8399,-0.8381,-0.8383,-0.8384,-0.8385,0,0,0,0,0,0,0,-0.8076,-0.8086,-0.8176,-0.8171,-0.8176,-0.8187,-0.8197,-0.8231,-0.8279,-0.8241,-0.8244,-0.8253,-0.8325,-0.8342,-0.8348,-0.84,-0.838,-0.8384,-0.8386,-0.8387,-0.8472,-0.8472,0,0,0,0,0,0,-0.8065,-0.8081,-0.8173,-0.8178,-0.8128,-0.8189,-0.82,-0.822,-0.8279,-0.8288,-0.8253,-0.8255,-0.8336,-0.8344,-0.8352,-0.8381,-0.8384,-0.8388,-0.839,-0.8472,-0.8472,-0.8472,0,0,0,0,0,0,-0.8063,-0.8073,-0.817,-0.8131,-0.8144,-0.8191,-0.8213,-0.8221,-0.8239,-0.8288,-0.8297,-0.8262,-0.8336,-0.8346,-0.8381,-0.8385,-0.8389,-0.8393,-0.8472,-0.8472,-0.8472,-0.8439,0,0,0,0,0,0,-0.8059,-0.8072,-0.808,-0.8131,-0.8146,-0.8196,-0.8214,-0.8223,-0.8244,-0.8248,-0.8299,-0.8307,-0.8337,-0.8375,-0.8384,-0.839,-0.8395,-0.8472,-0.8472,-0.8472,-0.844,-0.8438,-0.8437,0,0,0,0,0,-0.8054,-0.8068,-0.808,-0.8091,-0.8157,-0.8197,-0.8205,-0.8239,-0.8244,-0.8254,-0.8285,-0.8306,-0.8382,-0.8378,-0.8389,-0.8395,-0.8472,-0.8472,-0.8472,-0.8441,-0.8439,-0.8437,0,0,0,0,0,0,-0.8018,-0.8075,-0.809,-0.812,-0.8153,-0.8204,-0.8216,-0.8235,-0.8268,-0.827,-0.8311,-0.8322,-0.8352,-0.8377,-0.8371,-0.842,-0.8429,-0.8431,-0.8402,-0.84,-0.8398,-0.8392,-0.8398,0,0,0,0,0,-0.8013,-0.804,-0.8089,-0.8111,-0.8127,-0.8168,-0.8187,-0.821,-0.8246,-0.826,-0.8295,-0.833,-0.8362,-0.8383,-0.8415,-0.8444,-0.8456,-0.8454,-0.8452,-0.845,-0.8452,-0.8469,-0.8469,-0.8473,-0.8473,-0.8473,0,0,-0.8005,-0.8039,-0.8054,-0.8105,-0.8133,-0.816,-0.818,-0.8208,-0.8229,-0.8265,-0.8299,-0.8325,-0.8367,-0.8399,-0.8415,-0.8421,-0.8453,-0.8451,-0.8449,-0.8452,-0.8469,-0.8469,-0.8469,-0.8473,-0.8473,-0.8473,0,0,-0.8002,-0.8031,-0.8052,-0.808,-0.8122,-0.8149,-0.8154,-0.8202,-0.8221,-0.8255,-0.8283,-0.8309,-0.8363,-0.8392,-0.8413,-0.8421,-0.8441,-0.8431,-0.8421,-0.8438,-0.8437,-0.8437,-0.844,-0.8441,-0.8432,-0.8432,-0.8432,0,-0.7986,-0.8028,-0.8061,-0.8088,-0.811,-0.8142,-0.8165,-0.819,-0.8241,-0.8255,-0.8261,-0.833,-0.836,-0.8399,-0.8401,-0.8417,-0.8425,-0.8425,-0.8434,-0.8435,-0.8435,-0.8438,-0.8439,-0.843,-0.8431,-0.8431,-0.8431,0,-0.8006,-0.8034,-0.8047,-0.8093,-0.8117,-0.8141,-0.8179,-0.8199,-0.8219,-0.8246,-0.8281,-0.8318,-0.8359,-0.837,-0.839,-0.8411,-0.8414,-0.8426,-0.8437,-0.8433,-0.8436,-0.8438,-0.8428,-0.8429,-0.8429,-0.843,0,0,-0.7984,-0.8048,-0.8052,-0.8074,-0.8122,-0.8145,-0.8171,-0.8209,-0.8225,-0.8259,-0.8282,-0.8327,-0.8339,-0.8363,-0.8388,-0.8402,-0.8406,-0.8413,-0.8415,-0.841,-0.8431,-0.8421,-0.8422,-0.8419,-0.8419,-0.8419,-0.8427,0,-0.7989,-0.8035,-0.8066,-0.8101,-0.8128,-0.8159,-0.8181,-0.8214,-0.8239,-0.8266,-0.8296,-0.8326,-0.834,-0.8355,-0.837,-0.8402,-0.841,-0.8402,-0.8441,-0.8442,-0.843,-0.8424,-0.8414,-0.842,-0.8429,-0.8429,-0.843,0,-0.8001,-0.8032,-0.8069,-0.8114,-0.8127,-0.8146,-0.8184,-0.8209,-0.8246,-0.8264,-0.8291,-0.8315,-0.8344,-0.8352,-0.8393,-0.8386,-0.8404,-0.8422,-0.8423,-0.8428,-0.8436,-0.8429,-0.8422,-0.8423,-0.8432,-0.8432,-0.8432,0,-0.7981,-0.8033,-0.8062,-0.8079,-0.8132,-0.8145,-0.8168,-0.8206,-0.8227,-0.826,-0.8274,-0.831,-0.833,-0.8358,-0.8391,-0.8393,-0.8429,-0.8439,-0.8445,-0.8444,-0.8451,-0.845,-0.8447,-0.8462,-0.8462,-0.8462,-0.8462,0,-0.7983,-0.8005,-0.8054,-0.8071,-0.8097,-0.8132,-0.8156,-0.8182,-0.8215,-0.8238,-0.8268,-0.829,-0.8332,-0.836,-0.8386,-0.8416,-0.8425,-0.8441,-0.8448,-0.8438,-0.8436,-0.8451,-0.8451,-0.8463,-0.8462,-0.8462,-0.8462,0,-0.7966,-0.8,-0.8033,-0.808,-0.8092,-0.8109,-0.8149,-0.8168,-0.8195,-0.8225,-0.8234,-0.8276,-0.831,-0.8346,-0.8392,-0.841,-0.8438,-0.8448,-0.8425,-0.8429,-0.8433,-0.8432,-0.8439,-0.8442,-0.8455,-0.8454,-0.8454,0,-0.7966,-0.7983,-0.8031,-0.8048,-0.807,-0.8098,-0.8119,-0.8155,-0.8176,-0.8219,-0.8233,-0.8268,-0.8298,-0.8351,-0.8386,-0.8421,-0.8432,-0.8432,-0.8438,-0.8428,-0.8432,-0.8431,-0.8433,-0.8431,-0.843,-0.843,-0.843,0,-0.7961,-0.7976,-0.8005,-0.8039,-0.8063,-0.8093,-0.8123,-0.8136,-0.8177,-0.8199,-0.8233,-0.8257,-0.8303,-0.8338,-0.8377,-0.8402,-0.8423,-0.8428,-0.8431,-0.8422,-0.8408,-0.8415,-0.8421,-0.8428,-0.8428,-0.8428,-0.8428,-0.8428,-0.7953,-0.7969,-0.8005,-0.8036,-0.8062,-0.809,-0.8109,-0.8138,-0.8167,-0.8206,-0.8226,-0.826,-0.8297,-0.8351,-0.8375,-0.8403,-0.8409,-0.8414,-0.8415,-0.8416,-0.8413,-0.8403,-0.841,-0.841,-0.841,-0.841,-0.8411,0,-0.795,-0.7974,-0.8002,-0.8043,-0.8067,-0.8083,-0.8118,-0.8137,-0.8166,-0.8198,-0.8227,-0.8266,-0.83,-0.8337,-0.8374,-0.8388,-0.8399,-0.8397,-0.8396,-0.8401,-0.8405,-0.8399,-0.8387,-0.8387,-0.8387,-0.8387,-0.8387,-0.8387,-0.7951,-0.798,-0.7999,-0.8041,-0.8066,-0.8098,-0.8116,-0.8142,-0.8168,-0.8209,-0.8237,-0.8261,-0.8295,-0.8334,-0.8366,-0.8376,-0.8388,-0.8383,-0.8396,-0.8399,-0.8401,-0.8403,-0.8397,-0.8385,-0.8385,-0.839,-0.839,-0.839]},{"header":{"parameterUnit":"m.s-1","parameterCategory":1,"la1":30.2991,"la2":30.254,"lo1":-89.0895,"lo2":-89.0444,"dy":0.0017,"dx":0.0017,"nx":28,"ny":28,"refTime":"2024-07-18T09:00:00:Z","depth":0,"parameterNumber":3,"parameterNumberName":"V-component_of_WINDS"},"data":[0,0,0,0,0,0,0,0,0,0,0,0,0,0,0,0,0,0,0,0,0,0,0,0,0,0,0,0,0,0,0,0,0,0,0,0,0,0,0,0,0,0,0,0,0,0,0,0,0,0,0,0,0,0,0,0,0,0,3.2852,3.2852,0,3.2895,3.2895,3.2896,3.282,3.2817,3.2815,3.2812,3.2854,3.2857,3.286,0,0,0,0,0,0,0,0,0,0,0,0,0,3.27,3.2703,3.2852,3.2852,3.2853,3.2895,3.2895,3.2896,3.282,3.2817,3.2814,3.2811,3.2853,3.2857,3.2861,0,0,0,0,0,0,0,0,0,0,0,0,0,3.2757,3.2704,3.2851,3.282,3.2818,3.2895,3.2895,3.2896,3.2821,3.2817,3.2813,3.281,3.2851,3.2856,3.2861,3.297,0,0,3.2877,3.288,0,0,0,0,0,0,0,0,3.2754,3.2762,3.2824,3.2822,3.282,3.2848,3.2857,3.2921,3.2822,3.282,3.2812,3.2808,3.2855,3.2859,3.2876,3.2972,3.2974,3.2878,3.2881,3.2883,3.2885,0,0,0,0,0,0,0,3.275,3.276,3.2869,3.2825,3.2822,3.2803,3.2806,3.2869,3.2858,3.2819,3.2814,3.282,3.2853,3.2871,3.2876,3.2975,3.2878,3.2882,3.2886,3.2888,3.3161,3.3165,0,0,0,0,0,0,3.275,3.2757,3.2867,3.287,3.2777,3.2808,3.2813,3.2843,3.2857,3.2856,3.2824,3.2817,3.2864,3.287,3.2877,3.3005,3.2883,3.2888,3.2891,3.3157,3.3162,3.3166,0,0,0,0,0,0,3.2747,3.2761,3.2865,3.2812,3.2824,3.2815,3.2849,3.2846,3.2864,3.286,3.2858,3.2844,3.2861,3.287,3.2948,3.3005,3.289,3.2895,3.3152,3.3158,3.3164,3.3261,0,0,0,0,0,0,3.2743,3.276,3.2802,3.2814,3.2827,3.2936,3.2853,3.2849,3.2873,3.2865,3.2879,3.2878,3.2859,3.294,3.2953,3.301,3.2899,3.3147,3.3155,3.3162,3.3253,3.327,3.3285,0,0,0,0,0,3.2738,3.2827,3.2805,3.2818,3.288,3.294,3.2947,3.2924,3.2878,3.292,3.2917,3.2877,3.2997,3.2949,3.2962,3.3022,3.3143,3.3153,3.3162,3.3246,3.3267,3.3284,0,0,0,0,0,0,3.2822,3.2828,3.2803,3.2899,3.292,3.2927,3.2979,3.2948,3.2981,3.2971,3.294,3.2944,3.3028,3.3033,3.2979,3.3128,3.3062,3.3075,3.3121,3.3141,3.3157,3.3153,3.2904,0,0,0,0,0,3.2852,3.2901,3.2904,3.2988,3.3,3.2988,3.3013,3.2994,3.3013,3.3021,3.3024,3.3044,3.3086,3.3114,3.3152,3.3253,3.3255,3.3301,3.3317,3.333,3.3341,3.3394,3.3414,3.3197,3.3197,3.3197,0,0,3.2914,3.2923,3.2956,3.3005,3.3019,3.3069,3.2995,3.3052,3.3089,3.3029,3.3103,3.3106,3.3126,3.3215,3.3255,3.3222,3.3401,3.3342,3.3352,3.3356,3.3405,3.3426,3.3444,3.3203,3.3202,3.3201,0,0,3.3052,3.3065,3.3136,3.3151,3.3173,3.3164,3.3182,3.3194,3.3194,3.3267,3.3223,3.3266,3.3339,3.3355,3.3372,3.3516,3.348,3.353,3.3612,3.3664,3.3681,3.3696,3.3746,3.3765,3.3541,3.3541,3.3541,0,3.3126,3.3201,3.3176,3.3236,3.3258,3.3208,3.3279,3.3294,3.3327,3.3343,3.3306,3.3397,3.3406,3.3498,3.3534,3.355,3.3567,3.3527,3.3681,3.3696,3.3709,3.3757,3.3776,3.3547,3.3546,3.3545,3.3545,0,3.329,3.3343,3.3397,3.3431,3.346,3.3525,3.3509,3.3541,3.3519,3.3514,3.3589,3.3599,3.3638,3.3659,3.3638,3.3748,3.3727,3.3686,3.3619,3.3736,3.378,3.3798,3.3555,3.3553,3.3551,3.355,0,0,3.3482,3.3501,3.3521,3.3536,3.3556,3.3596,3.3658,3.3697,3.3724,3.3749,3.3799,3.3863,3.3825,3.3845,3.3825,3.3871,3.3983,3.3824,3.3824,3.3852,3.4103,3.4133,3.4155,3.396,3.3963,3.3966,3.4101,0,3.3618,3.3726,3.3706,3.3811,3.3859,3.3812,3.3866,3.3884,3.3881,3.392,3.3916,3.3961,3.3908,3.392,3.3963,3.396,3.4033,3.395,3.4005,3.4007,3.4001,3.4178,3.421,3.4337,3.4118,3.4121,3.4123,0,3.3792,3.3823,3.3934,3.3945,3.3965,3.4014,3.4048,3.4086,3.4105,3.4099,3.4122,3.4094,3.4154,3.4088,3.4171,3.4115,3.4136,3.4138,3.4143,3.4146,3.4072,3.4185,3.4377,3.4396,3.4151,3.4148,3.4146,0,3.3919,3.3989,3.4064,3.4078,3.4094,3.4129,3.4137,3.4152,3.4177,3.4206,3.4222,3.4258,3.4277,3.4305,3.4287,3.424,3.4372,3.4304,3.4368,3.4369,3.4397,3.4396,3.4595,3.4413,3.4413,3.4412,3.4412,0,3.4073,3.4142,3.4121,3.4167,3.4243,3.4218,3.4293,3.4296,3.4309,3.4354,3.4315,3.4358,3.4332,3.4372,3.4358,3.4428,3.4437,3.4434,3.4429,3.4437,3.4437,3.4449,3.444,3.4417,3.4416,3.4415,3.4414,0,3.4227,3.4217,3.4295,3.4304,3.4308,3.4363,3.437,3.4412,3.4406,3.4464,3.4475,3.4466,3.4511,3.4496,3.4545,3.4535,3.4624,3.4608,3.4618,3.4614,3.4678,3.4672,3.4892,3.4919,3.472,3.4722,3.4724,0,3.4326,3.4378,3.4393,3.442,3.4432,3.4477,3.4502,3.4479,3.4507,3.4532,3.4571,3.4613,3.4645,3.472,3.4716,3.4753,3.4737,3.4812,3.4742,3.4748,3.4737,3.4734,3.4739,3.4825,3.4828,3.4829,3.4831,0,3.4501,3.4493,3.4532,3.4568,3.4599,3.4627,3.465,3.4675,3.4654,3.4686,3.4733,3.4758,3.4807,3.4849,3.4882,3.4889,3.4857,3.4853,3.4869,3.4877,3.4881,3.4879,3.4655,3.4848,3.4846,3.4845,3.4844,3.4843,3.463,3.4674,3.4691,3.4735,3.475,3.4773,3.4813,3.4813,3.4851,3.4891,3.4875,3.4928,3.4944,3.4985,3.4997,3.5037,3.5009,3.5033,3.5039,3.5045,3.5053,3.4875,3.5043,3.5043,3.5042,3.5042,3.5042,0,3.4803,3.4812,3.4852,3.4887,3.4921,3.4888,3.4912,3.4943,3.499,3.5009,3.5042,3.5094,3.5135,3.5135,3.5172,3.5205,3.519,3.5215,3.5212,3.5214,3.5077,3.5058,3.5226,3.5226,3.5226,3.5226,3.5226,3.5226,3.4897,3.4969,3.4963,3.5042,3.505,3.5102,3.5119,3.5139,3.5154,3.5215,3.5248,3.5249,3.526,3.5297,3.5333,3.5332,3.5347,3.5377,3.537,3.5242,3.5224,3.5206,3.5189,3.5381,3.5381,3.5504,3.5505,3.5506]}]]